GW5812 Weather Reports


time (UTC)temp
C
wind
direction
speed
KPH
gust
KPH
rain 1hr
cm
rain 24hr
cm
rain mn
cm
humidity
%
barometer
mb
20260510020026 15 248 0.0 0.0 0.00 0.00 0.00 60 1030.8
20260510015027 15 248 0.0 0.0 0.00 0.00 0.00 62 1030.5
20260510014026 15 113 0.0 0.0 0.00 0.00 0.00 64 1030.3
20260510013026 16 248 0.0 0.0 0.00 0.00 0.00 65 1030.2
20260510012028 16 248 0.0 0.0 0.00 0.00 0.00 63 1030.0
20260510011030 17 293 1.6 1.6 0.00 0.00 0.00 62 1029.8
20260510010025 17 135 1.6 3.2 0.00 0.00 0.00 61 1029.7
20260510005026 17 293 0.0 0.0 0.00 0.00 0.00 59 1029.5
20260510004025 18 225 0.0 0.0 0.00 0.00 0.00 57 1029.3
20260510003026 19 135 0.0 0.0 0.00 0.00 0.00 53 1029.0
20260510002028 20 270 0.0 1.6 0.00 0.00 0.00 51 1028.8
20260510001026 20 270 0.0 0.0 0.00 0.00 0.00 46 1028.7
20260510000028 20 90 0.0 0.0 0.00 0.00 0.00 41 1028.6
20260509235026 21 225 0.0 0.0 0.00 0.00 0.00 42 1028.5
20260509234025 22 248 4.8 6.4 0.00 0.00 0.00 41 1028.5
20260509233026 22 315 3.2 3.2 0.00 0.00 0.00 42 1028.5
20260509232025 22 225 1.6 3.2 0.00 0.00 0.00 42 1028.5
20260509231026 22 203 4.8 8.0 0.00 0.00 0.00 42 1028.4
20260509230026 23 225 8.0 11.3 0.00 0.00 0.00 42 1028.3
20260509225026 23 225 11.3 14.5 0.00 0.00 0.00 41 1028.2
20260509224026 23 180 6.4 8.0 0.00 0.00 0.00 41 1028.3
20260509223025 22 248 6.4 8.0 0.00 0.00 0.00 41 1028.3
20260509222025 22 158 8.0 8.0 0.00 0.00 0.00 40 1028.4
20260509221028 22 248 9.7 11.3 0.00 0.00 0.00 42 1028.2
20260509220026 22 203 9.7 11.3 0.00 0.00 0.00 42 1028.2
20260509215026 23 180 8.0 11.3 0.00 0.00 0.00 40 1028.2
20260509214028 22 293 6.4 8.0 0.00 0.00 0.00 39 1028.2
20260509213026 23 180 11.3 14.5 0.00 0.00 0.00 40 1028.1
20260509212026 23 90 8.0 9.7 0.00 0.00 0.00 40 1028.1
20260509211026 23 270 3.2 3.2 0.00 0.00 0.00 36 1027.8
20260509210026 22 225 6.4 16.1 0.00 0.00 0.00 41 1028.0
20260509205026 22 225 14.5 17.7 0.00 0.00 0.00 41 1027.8
20260509204026 23 293 8.0 11.3 0.00 0.00 0.00 39 1027.7
20260509203030 22 225 14.5 17.7 0.00 0.00 0.00 40 1027.6
20260509202026 22 158 12.9 14.5 0.00 0.00 0.00 38 1027.5
20260509201028 23 158 8.0 9.7 0.00 0.00 0.00 38 1027.5
20260509200028 23 225 9.7 11.3 0.00 0.00 0.00 37 1027.5
20260509195025 24 270 3.2 3.2 0.00 0.00 0.00 38 1027.7
20260509194028 24 203 8.0 9.7 0.00 0.00 0.00 36 1027.9
20260509193025 23 158 3.2 8.0 0.00 0.00 0.00 37 1028.1
20260509192026 23 158 9.7 11.3 0.00 0.00 0.00 38 1028.3
20260509191026 23 203 8.0 8.0 0.00 0.00 0.00 38 1028.4
20260509190028 23 248 11.3 17.7 0.00 0.00 0.00 36 1028.4
20260509185026 23 158 11.3 16.1 0.00 0.00 0.00 36 1028.3
20260509184025 23 270 8.0 8.0 0.00 0.00 0.00 38 1028.5
20260509183026 22 338 4.8 8.0 0.00 0.00 0.00 39 1028.7
20260509182026 23 158 12.9 16.1 0.00 0.00 0.00 35 1028.8
20260509181026 22 180 9.7 12.9 0.00 0.00 0.00 38 1028.9
20260509180027 21 225 8.0 11.3 0.00 0.00 0.00 41 1029.1
20260509175028 22 203 8.0 11.3 0.00 0.00 0.00 41 1029.2
20260509174026 21 180 6.4 8.0 0.00 0.00 0.00 44 1029.4
20260509173026 20 158 9.7 11.3 0.00 0.00 0.00 46 1029.5
20260509172026 20 135 6.4 8.0 0.00 0.00 0.00 46 1029.5
20260509171026 20 203 4.8 4.8 0.00 0.00 0.00 47 1029.7
20260509170026 20 203 3.2 4.8 0.00 0.00 0.00 46 1029.8
20260509165026 20 180 8.0 11.3 0.00 0.00 0.00 46 1029.9
20260509164028 20 225 4.8 4.8 0.00 0.00 0.00 47 1029.9
20260509163026 20 158 11.3 12.9 0.00 0.00 0.00 46 1029.9
20260509162027 21 113 6.4 8.0 0.00 0.00 0.00 44 1029.8
20260509161026 20 225 4.8 4.8 0.00 0.00 0.00 47 1029.8
20260509160026 19 248 8.0 9.7 0.00 0.00 0.00 49 1030.0
20260509155026 19 225 9.7 11.3 0.00 0.00 0.00 48 1029.9
20260509154026 19 135 4.8 6.4 0.00 0.00 0.00 50 1030.0
20260509153025 18 225 3.2 4.8 0.00 0.00 0.00 49 1030.0
20260509152026 19 135 6.4 8.0 0.00 0.00 0.00 48 1029.9
20260509151026 19 180 8.0 9.7 0.00 0.00 0.00 45 1029.7
20260509150026 19 225 4.8 6.4 0.00 0.00 0.00 48 1029.9
20260509145026 19 225 6.4 8.0 0.00 0.00 0.00 48 1029.9
20260509144026 20 180 6.4 8.0 0.00 0.00 0.00 45 1029.9
20260509143025 18 248 3.2 4.8 0.00 0.00 0.00 50 1030.0
20260509142026 18 225 4.8 8.0 0.00 0.00 0.00 49 1029.9
20260509141026 18 158 4.8 8.0 0.00 0.00 0.00 49 1030.3
20260509140026 17 225 6.4 8.0 0.00 0.00 0.00 53 1030.6
20260509135026 16 135 1.6 3.2 0.00 0.00 0.00 55 1030.8
20260509134026 16 180 4.8 4.8 0.00 0.00 0.00 55 1030.9
20260509133026 15 270 4.8 8.0 0.00 0.00 0.00 56 1031.1
20260509132026 15 203 11.3 12.9 0.00 0.00 0.00 55 1031.1
20260509131026 15 225 8.0 8.0 0.00 0.00 0.00 55 1031.1
20260509130026 15 203 9.7 11.3 0.00 0.00 0.00 55 1031.0
20260509125026 15 203 6.4 8.0 0.00 0.00 0.00 55 1031.0
20260509124025 15 180 4.8 6.4 0.00 0.00 0.00 55 1030.9
20260509123026 15 225 4.8 6.4 0.00 0.00 0.00 54 1030.9
20260509122026 14 158 8.0 9.7 0.00 0.00 0.00 54 1030.9
20260509121030 14 225 3.2 3.2 0.00 0.00 0.00 56 1031.1
20260509120026 13 270 3.2 3.2 0.00 0.00 0.00 56 1031.1
20260509115026 13 293 1.6 3.2 0.00 0.00 0.00 56 1031.1
20260509114026 13 293 3.2 3.2 0.00 0.00 0.00 55 1031.1
20260509113028 13 225 3.2 3.2 0.00 0.00 0.00 56 1031.0
20260509112028 13 225 4.8 6.4 0.00 0.00 0.00 55 1031.0
20260509111028 13 225 3.2 4.8 0.00 0.00 0.00 55 1031.0
20260509110026 13 270 1.6 1.6 0.00 0.00 0.00 55 1030.9
20260509105026 13 225 1.6 3.2 0.00 0.00 0.00 53 1030.9
20260509104026 13 225 4.8 6.4 0.00 0.00 0.00 53 1031.0
20260509103026 12 248 3.2 3.2 0.00 0.00 0.00 54 1030.9
20260509102025 12 248 1.6 3.2 0.00 0.00 0.00 55 1031.0
20260509101026 12 225 1.6 3.2 0.00 0.00 0.00 55 1031.0
20260509100026 12 270 3.2 3.2 0.00 0.00 0.00 54 1031.0
20260509095026 12 293 3.2 3.2 0.00 0.00 0.00 54 1031.1
20260509094026 12 270 1.6 1.6 0.00 0.00 0.00 54 1031.1
20260509093026 12 203 3.2 3.2 0.00 0.00 0.00 54 1031.1
20260509092025 12 135 3.2 3.2 0.00 0.00 0.00 53 1031.1
20260509091026 13 248 4.8 6.4 0.00 0.00 0.00 51 1031.3
20260509090026 12 113 4.8 4.8 0.00 0.00 0.00 52 1031.2
20260509085026 13 158 4.8 4.8 0.00 0.00 0.00 51 1031.3
20260509084026 13 248 3.2 3.2 0.00 0.00 0.00 51 1031.3
20260509083028 13 225 1.6 3.2 0.00 0.00 0.00 51 1031.4
20260509082026 13 225 3.2 3.2 0.00 0.00 0.00 51 1031.3
20260509081026 13 225 4.8 6.4 0.00 0.00 0.00 51 1031.4
20260509080026 13 270 4.8 6.4 0.00 0.00 0.00 50 1031.4
20260509075026 13 270 4.8 4.8 0.00 0.00 0.00 50 1031.5
20260509074026 13 225 4.8 4.8 0.00 0.00 0.00 49 1031.6
20260509073026 13 270 3.2 3.2 0.00 0.00 0.00 50 1031.7
20260509072026 13 248 6.4 8.0 0.00 0.00 0.00 50 1031.8
20260509071028 13 248 4.8 6.4 0.00 0.00 0.00 49 1031.8
20260509070026 13 315 3.2 3.2 0.00 0.00 0.00 50 1031.8
20260509065026 13 225 3.2 3.2 0.00 0.00 0.00 51 1031.8
20260509064030 13 270 4.8 6.4 0.00 0.00 0.00 52 1032.0
20260509063027 12 248 3.2 4.8 0.00 0.00 0.00 54 1032.1
20260509062026 12 270 1.6 3.2 0.00 0.00 0.00 55 1032.1
20260509061028 12 293 3.2 3.2 0.00 0.00 0.00 54 1032.3
20260509060026 13 158 3.2 6.4 0.00 0.00 0.00 50 1032.3
20260509055025 13 158 3.2 4.8 0.00 0.00 0.00 51 1032.4
20260509054026 13 225 3.2 3.2 0.00 0.00 0.00 51 1032.4
20260509053030 12 225 1.6 3.2 0.00 0.00 0.00 51 1032.6
20260509052026 12 248 3.2 3.2 0.00 0.00 0.00 51 1032.6
20260509051026 12 225 1.6 3.2 0.00 0.00 0.00 52 1032.7
20260509050030 12 225 1.6 3.2 0.00 0.00 0.00 52 1032.7
20260509045026 12 225 1.6 3.2 0.00 0.00 0.00 52 1032.6
20260509044025 12 203 1.6 3.2 0.00 0.00 0.00 52 1032.5
20260509043026 12 203 3.2 4.8 0.00 0.00 0.00 52 1032.6
20260509042026 13 248 1.6 3.2 0.00 0.00 0.00 52 1032.6
20260509041026 12 270 1.6 3.2 0.00 0.00 0.00 53 1032.4
20260509040025 12 270 3.2 3.2 0.00 0.00 0.00 53 1032.5
20260509035026 13 270 3.2 3.2 0.00 0.00 0.00 53 1032.6
20260509034026 13 270 3.2 3.2 0.00 0.00 0.00 52 1032.5
20260509033026 13 270 1.6 3.2 0.00 0.00 0.00 52 1032.5
20260509032025 13 248 3.2 3.2 0.00 0.00 0.00 52 1032.5
20260509031026 13 225 1.6 3.2 0.00 0.00 0.00 51 1032.5
20260509030025 13 270 4.8 4.8 0.00 0.00 0.00 51 1032.6
20260509025025 13 270 3.2 3.2 0.00 0.00 0.00 51 1032.6
20260509024026 14 270 3.2 3.2 0.00 0.00 0.00 51 1032.7
20260509023026 14 270 3.2 3.2 0.00 0.00 0.00 50 1032.9
20260509022026 15 270 3.2 4.8 0.00 0.00 0.00 49 1032.8
20260509021029 15 225 1.6 3.2 0.00 0.00 0.00 48 1032.6